STARLINK-11592, 63560

Orbit data source: Space-Track

STARLINK-11592, 63560 is a payload satellite owned by SpaceX/Seattle (US) in LEO that was launched on Sun, 13 Apr 2025 UTC via an FALCON 9 launch vehicle from the Air Force Eastern Test Range (AFETR). Payload-class satellites include a variety of spacecraft equipped with specific instruments for various scientific and technological missions. These include communications satellites like Starlink; space stations such as the ISS; scientific satellites like the Hubble; Earth observation satellites from companies like Planet Labs, Umbra, and HawkEye 360; GPS; miniature CubeSats for education and research; and military/defense satellites.

Loading next visibility...
Identifier
63560, 2025-075N
Orbit
LEO
Country
Flag of USUS
Related business
Manufacturer
SpaceX/Seattle
Mission
Operational Commercial Communications
Bus & Motor
STARLINK V2MD, Unknown motor
Mass
960 kg wet, ~910 kg dry
Launch date (UTC)
2025-04-13 (1 year ago)
Launch vehicle
FALCON 9
Launch site
Air Force Eastern Test Range (AFETR)
Object type
Payload
Rocket body
Debris
Shape & HBR
Box + 2 Pan, 18.1 m
Radar Cross Section
36.964 m², Large (>1 m²)

Expand to show TLE details & history
Last TLE update: 2 days ago

TLE from 2 days ago
0 STARLINK-11592
1 63560U 25075N   26170.25444440  .00151663  00000-0  11594-2 0  9996
2 63560  42.9992 261.4646 0002800 287.2069  72.8492 15.70931639 69225
Epoch: 2026-06-19T06:06Z
TLE epoch observation values (Epoch: 2026-06-19T06:06:23.996Z)
Latitude
-0.00001°
Longitude
-97.62145°
Altitude
355.449 km
Speed
7.698 km/s
True Right ascension
17h 25m 51s
True Declination
0° 00' 00"
Sunlit
Object was in full shadow at epoch
Visualization orbit readout
Latitude
Unknown
Longitude
Unknown
Altitude
Unknown
Speed
Unknown
Apparent Right ascension
Unknown
Apparent Declination
Unknown
Sunlit
N/A
Visualization observer readout
Local Sidereal Time
07:21:52
Azimuth
Unknown
Elevation
Unknown
Doppler factor
Unknown
Orbital elements
Apogee altitude
360.101 km
Perigee altitude
356.329 km
Semi-major axis
6,736.352 km
Eccentricity
0.00028
Inclination
42.9992°
RAAN
261.4646°
Arg. of periapsis
287.2069°
True anomaly
72.87986°
Mean anomaly
72.8492°
Eccentric anomaly
72.86453°
Mean motion
3.9256 °/min
Orbital period
91.71 mins
BSTAR
0.0011594
Loading maneuver chart data...
Computing Atmospheric mass density...
Loading historical data...
Loading historical data...
Loading historical data...
Loading historical data...
Loading historical data...
Loading historical data...
Loading historical data...

Documentation

Showing up to 5 results
|